| time (UTC) | temp C | wind direction | speed KPH | gust KPH | rain 1hr cm | rain 24hr cm | rain mn cm | humidity % | barometer mb |
| 20260906231608 | 11 | 46 | 0.0 | 3.2 | 0.00 | 0.00 | 0.00 | 65 | 1026.6 |
| 20260906230607 | 11 | 46 | 1.6 | 3.2 | 0.00 | 0.00 | 0.00 | 65 | 1026.6 |
| 20260906230106 | 12 | 50 | 0.0 | 6.4 | 0.00 | 0.00 | 0.00 | 64 | 1026.7 |
| 20260906225108 | 12 | 6 | 1.6 | 3.2 | 0.00 | 0.00 | 0.00 | 64 | 1026.7 |
| 20260906224607 | 12 | 21 | 3.2 | 3.2 | 0.00 | 0.00 | 0.00 | 65 | 1026.6 |
| 20260906224107 | 12 | 347 | 0.0 | 3.2 | 0.00 | 0.00 | 0.00 | 65 | 1026.8 |
| 20260906223607 | 12 | 29 | 1.6 | 3.2 | 0.00 | 0.00 | 0.00 | 64 | 1026.6 |
| 20260906223107 | 12 | 35 | 3.2 | 3.2 | 0.00 | 0.00 | 0.00 | 64 | 1026.8 |
| 20260906222107 | 12 | 28 | 1.6 | 3.2 | 0.00 | 0.00 | 0.00 | 63 | 1027.1 |
| 20260906221607 | 12 | 31 | 1.6 | 3.2 | 0.00 | 0.00 | 0.00 | 63 | 1026.8 |
| 20260906221108 | 12 | 32 | 3.2 | 3.2 | 0.00 | 0.00 | 0.00 | 62 | 1026.8 |
| 20260906220607 | 13 | 44 | 0.0 | 3.2 | 0.00 | 0.00 | 0.00 | 63 | 1026.7 |
| 20260906220107 | 13 | 27 | 3.2 | 3.2 | 0.00 | 0.00 | 0.00 | 62 | 1027.3 |
| 20260906215607 | 13 | 16 | 3.2 | 3.2 | 0.00 | 0.00 | 0.00 | 62 | 1027.0 |
| 20260906215107 | 13 | 25 | 1.6 | 4.8 | 0.00 | 0.00 | 0.00 | 61 | 1026.8 |
| 20260906214107 | 13 | 36 | 1.6 | 3.2 | 0.00 | 0.00 | 0.00 | 63 | 1027.1 |
| 20260906213606 | 12 | 55 | 0.0 | 3.2 | 0.00 | 0.00 | 0.00 | 63 | 1026.8 |
| 20260906213107 | 13 | 50 | 0.0 | 3.2 | 0.00 | 0.00 | 0.00 | 62 | 1027.0 |
| 20260906212607 | 13 | 48 | 0.0 | 3.2 | 0.00 | 0.00 | 0.00 | 61 | 1027.0 |
| 20260906212108 | 13 | 62 | 0.0 | 3.2 | 0.00 | 0.00 | 0.00 | 60 | 1027.0 |
| 20260906211107 | 13 | 40 | 3.2 | 3.2 | 0.00 | 0.00 | 0.00 | 59 | 1027.0 |
| 20260906210107 | 14 | 42 | 3.2 | 3.2 | 0.00 | 0.00 | 0.00 | 59 | 1026.6 |
| 20260906205607 | 13 | 23 | 1.6 | 3.2 | 0.00 | 0.00 | 0.00 | 58 | 1026.8 |
| 20260906204107 | 14 | 33 | 1.6 | 3.2 | 0.00 | 0.00 | 0.00 | 58 | 1026.7 |
| 20260906203607 | 14 | 350 | 1.6 | 3.2 | 0.00 | 0.00 | 0.00 | 57 | 1026.6 |
| 20260906203107 | 14 | 26 | 1.6 | 4.8 | 0.00 | 0.00 | 0.00 | 57 | 1026.4 |
| 20260906202607 | 15 | 19 | 0.0 | 4.8 | 0.00 | 0.00 | 0.00 | 56 | 1026.2 |
| 20260906202107 | 15 | 10 | 3.2 | 4.8 | 0.00 | 0.00 | 0.00 | 55 | 1026.4 |
| 20260906201607 | 15 | 297 | 0.0 | 3.2 | 0.00 | 0.00 | 0.00 | 55 | 1026.3 |
| 20260906201107 | 15 | 15 | 1.6 | 3.2 | 0.00 | 0.00 | 0.00 | 55 | 1026.4 |
| 20260906200607 | 15 | 27 | 3.2 | 3.2 | 0.00 | 0.00 | 0.00 | 55 | 1026.0 |
| 20260906200107 | 15 | 13 | 1.6 | 3.2 | 0.00 | 0.00 | 0.00 | 55 | 1026.1 |
| 20260906195607 | 15 | 341 | 0.0 | 3.2 | 0.00 | 0.00 | 0.00 | 54 | 1026.1 |
| 20260906194607 | 15 | 29 | 3.2 | 3.2 | 0.00 | 0.00 | 0.00 | 53 | 1026.2 |
| 20260906194107 | 15 | 37 | 0.0 | 3.2 | 0.00 | 0.00 | 0.00 | 53 | 1026.3 |
| 20260906193607 | 15 | 16 | 1.6 | 3.2 | 0.00 | 0.00 | 0.00 | 52 | 1026.1 |
| 20260906193107 | 16 | 23 | 0.0 | 3.2 | 0.00 | 0.00 | 0.00 | 52 | 1026.3 |
| 20260906192607 | 16 | 21 | 1.6 | 3.2 | 0.00 | 0.00 | 0.00 | 51 | 1026.3 |
| 20260906192107 | 16 | 26 | 1.6 | 3.2 | 0.00 | 0.00 | 0.00 | 50 | 1025.9 |
| 20260906191607 | 16 | 26 | 1.6 | 3.2 | 0.00 | 0.00 | 0.00 | 50 | 1026.3 |
| 20260906191108 | 16 | 16 | 1.6 | 3.2 | 0.00 | 0.00 | 0.00 | 51 | 1026.1 |
| 20260906190607 | 16 | 32 | 0.0 | 3.2 | 0.00 | 0.00 | 0.00 | 50 | 1026.0 |
| 20260906185108 | 17 | 350 | 3.2 | 4.8 | 0.00 | 0.00 | 0.00 | 47 | 1026.0 |
| 20260906184108 | 17 | 76 | 0.0 | 3.2 | 0.00 | 0.00 | 0.00 | 46 | 1025.7 |
| 20260906183607 | 17 | 18 | 0.0 | 3.2 | 0.00 | 0.00 | 0.00 | 46 | 1025.9 |
| 20260906183108 | 18 | 350 | 3.2 | 4.8 | 0.00 | 0.00 | 0.00 | 45 | 1025.7 |
| 20260906182607 | 17 | 21 | 0.0 | 4.8 | 0.00 | 0.00 | 0.00 | 46 | 1025.7 |
| 20260906182106 | 18 | 4 | 0.0 | 3.2 | 0.00 | 0.00 | 0.00 | 45 | 1025.7 |
| 20260906181607 | 18 | 18 | 0.0 | 3.2 | 0.00 | 0.00 | 0.00 | 44 | 1025.8 |
| 20260906181108 | 18 | 22 | 0.0 | 3.2 | 0.00 | 0.00 | 0.00 | 45 | 1025.7 |
| 20260906180607 | 18 | 27 | 1.6 | 3.2 | 0.00 | 0.00 | 0.00 | 44 | 1025.5 |
| 20260906175607 | 19 | 30 | 1.6 | 3.2 | 0.00 | 0.00 | 0.00 | 44 | 1025.6 |
| 20260906174607 | 19 | 15 | 0.0 | 3.2 | 0.00 | 0.00 | 0.00 | 42 | 1025.6 |
| 20260906174107 | 20 | 5 | 3.2 | 3.2 | 0.00 | 0.00 | 0.00 | 41 | 1025.2 |
| 20260906173607 | 20 | 67 | 0.0 | 3.2 | 0.00 | 0.00 | 0.00 | 40 | 1025.4 |
| 20260906173107 | 20 | 65 | 1.6 | 4.8 | 0.00 | 0.00 | 0.00 | 40 | 1025.3 |
| 20260906172607 | 21 | 31 | 3.2 | 6.4 | 0.00 | 0.00 | 0.00 | 39 | 1025.4 |
| 20260906172107 | 21 | 82 | 0.0 | 6.4 | 0.00 | 0.00 | 0.00 | 39 | 1024.9 |
| 20260906171606 | 21 | 19 | 1.6 | 11.3 | 0.00 | 0.00 | 0.00 | 38 | 1025.3 |
| 20260906171107 | 21 | 26 | 4.8 | 11.3 | 0.00 | 0.00 | 0.00 | 37 | 1025.0 |
| 20260906165607 | 22 | 316 | 1.6 | 6.4 | 0.00 | 0.00 | 0.00 | 36 | 1025.0 |
| 20260906164607 | 23 | 48 | 3.2 | 6.4 | 0.00 | 0.00 | 0.00 | 35 | 1024.7 |
| 20260906164109 | 23 | 17 | 0.0 | 9.7 | 0.00 | 0.00 | 0.00 | 34 | 1024.9 |
| 20260906163607 | 23 | 36 | 4.8 | 9.7 | 0.00 | 0.00 | 0.00 | 34 | 1025.0 |
| 20260906163107 | 23 | 28 | 6.4 | 11.3 | 0.00 | 0.00 | 0.00 | 34 | 1024.9 |
| 20260906161607 | 24 | 12 | 3.2 | 11.3 | 0.00 | 0.00 | 0.00 | 31 | 1025.0 |
| 20260906161107 | 24 | 3 | 1.6 | 12.9 | 0.00 | 0.00 | 0.00 | 32 | 1024.7 |
| 20260906160607 | 24 | 262 | 3.2 | 12.9 | 0.00 | 0.00 | 0.00 | 32 | 1024.6 |
| 20260906160107 | 24 | 318 | 3.2 | 16.1 | 0.00 | 0.00 | 0.00 | 31 | 1024.6 |
| 20260906155108 | 24 | 354 | 8.0 | 17.7 | 0.00 | 0.00 | 0.00 | 30 | 1024.8 |
| 20260906154607 | 24 | 21 | 1.6 | 17.7 | 0.00 | 0.00 | 0.00 | 31 | 1024.8 |
| 20260906153607 | 25 | 351 | 6.4 | 20.9 | 0.00 | 0.00 | 0.00 | 28 | 1024.7 |
| 20260906153107 | 25 | 12 | 6.4 | 20.9 | 0.00 | 0.00 | 0.00 | 28 | 1024.7 |
| 20260906152607 | 24 | 292 | 3.2 | 17.7 | 0.00 | 0.00 | 0.00 | 31 | 1024.6 |
| 20260906152107 | 25 | 20 | 4.8 | 17.7 | 0.00 | 0.00 | 0.00 | 30 | 1024.7 |
| 20260906151607 | 25 | 317 | 1.6 | 17.7 | 0.00 | 0.00 | 0.00 | 30 | 1025.0 |
| 20260906151107 | 25 | 1 | 12.9 | 19.3 | 0.00 | 0.00 | 0.00 | 29 | 1024.7 |
| 20260906150606 | 25 | 48 | 11.3 | 19.3 | 0.00 | 0.00 | 0.00 | 29 | 1024.7 |
| 20260906150106 | 25 | 15 | 6.4 | 19.3 | 0.00 | 0.00 | 0.00 | 28 | 1024.9 |
| 20260906145607 | 25 | 4 | 3.2 | 17.7 | 0.00 | 0.00 | 0.00 | 29 | 1024.6 |
| 20260906145107 | 25 | 12 | 4.8 | 19.3 | 0.00 | 0.00 | 0.00 | 30 | 1024.9 |
| 20260906144607 | 25 | 338 | 6.4 | 19.3 | 0.00 | 0.00 | 0.00 | 29 | 1024.9 |
| 20260906144106 | 25 | 307 | 4.8 | 22.5 | 0.00 | 0.00 | 0.00 | 29 | 1024.9 |
| 20260906143607 | 25 | 257 | 3.2 | 22.5 | 0.00 | 0.00 | 0.00 | 29 | 1024.8 |
| 20260906143107 | 25 | 347 | 4.8 | 20.9 | 0.00 | 0.00 | 0.00 | 30 | 1025.1 |
| 20260906142607 | 25 | 333 | 9.7 | 16.1 | 0.00 | 0.00 | 0.00 | 31 | 1024.9 |
| 20260906142106 | 25 | 6 | 6.4 | 14.5 | 0.00 | 0.00 | 0.00 | 31 | 1025.1 |
| 20260906141607 | 25 | 1 | 8.0 | 24.1 | 0.00 | 0.00 | 0.00 | 31 | 1024.9 |
| 20260906141106 | 25 | 3 | 11.3 | 24.1 | 0.00 | 0.00 | 0.00 | 30 | 1025.2 |
| 20260906140607 | 25 | 2 | 6.4 | 19.3 | 0.00 | 0.00 | 0.00 | 31 | 1025.0 |
| 20260906140108 | 25 | 310 | 1.6 | 16.1 | 0.00 | 0.00 | 0.00 | 31 | 1025.0 |
| 20260906135107 | 25 | 327 | 4.8 | 12.9 | 0.00 | 0.00 | 0.00 | 33 | 1025.2 |
| 20260906134607 | 25 | 132 | 1.6 | 24.1 | 0.00 | 0.00 | 0.00 | 33 | 1025.1 |
| 20260906134107 | 25 | 293 | 9.7 | 24.1 | 0.00 | 0.00 | 0.00 | 33 | 1025.4 |
| 20260906133107 | 26 | 359 | 11.3 | 12.9 | 0.00 | 0.00 | 0.00 | 33 | 1025.3 |
| 20260906132607 | 26 | 231 | 3.2 | 9.7 | 0.00 | 0.00 | 0.00 | 33 | 1025.2 |
| 20260906132107 | 25 | 357 | 3.2 | 12.9 | 0.00 | 0.00 | 0.00 | 35 | 1025.3 |
| 20260906130607 | 25 | 1 | 8.0 | 19.3 | 0.00 | 0.00 | 0.00 | 35 | 1025.4 |
| 20260906130107 | 26 | 308 | 4.8 | 12.9 | 0.00 | 0.00 | 0.00 | 35 | 1025.4 |
| 20260906125607 | 25 | 286 | 4.8 | 17.7 | 0.00 | 0.00 | 0.00 | 35 | 1025.4 |
| 20260906125107 | 25 | 236 | 3.2 | 17.7 | 0.00 | 0.00 | 0.00 | 36 | 1025.3 |
| 20260906124107 | 25 | 5 | 17.7 | 25.7 | 0.00 | 0.00 | 0.00 | 37 | 1025.7 |
| 20260906123607 | 25 | 339 | 9.7 | 14.5 | 0.00 | 0.00 | 0.00 | 36 | 1025.5 |
| 20260906123107 | 25 | 32 | 4.8 | 14.5 | 0.00 | 0.00 | 0.00 | 35 | 1025.5 |
| 20260906122607 | 26 | 334 | 8.0 | 16.1 | 0.00 | 0.00 | 0.00 | 35 | 1025.6 |
| 20260906121607 | 24 | 334 | 6.4 | 27.4 | 0.00 | 0.00 | 0.00 | 37 | 1025.7 |
| 20260906121107 | 25 | 11 | 4.8 | 24.1 | 0.00 | 0.00 | 0.00 | 37 | 1025.5 |
| 20260906120607 | 25 | 33 | 14.5 | 16.1 | 0.00 | 0.00 | 0.00 | 36 | 1025.8 |
| 20260906120107 | 25 | 250 | 4.8 | 24.1 | 0.00 | 0.00 | 0.00 | 35 | 1025.8 |
| 20260906115607 | 25 | 358 | 12.9 | 24.1 | 0.00 | 0.00 | 0.00 | 36 | 1025.9 |
| 20260906115107 | 26 | 222 | 6.4 | 12.9 | 0.00 | 0.00 | 0.00 | 34 | 1025.7 |
| 20260906114607 | 25 | 147 | 1.6 | 17.7 | 0.00 | 0.00 | 0.00 | 36 | 1025.8 |
| 20260906114107 | 24 | 341 | 3.2 | 20.9 | 0.00 | 0.00 | 0.00 | 39 | 1025.5 |
| 20260906113607 | 25 | 92 | 1.6 | 20.9 | 0.00 | 0.00 | 0.00 | 38 | 1025.6 |
| 20260906113109 | 23 | 354 | 8.0 | 17.7 | 0.00 | 0.00 | 0.00 | 39 | 1025.5 |
| 20260906112607 | 25 | 339 | 9.7 | 17.7 | 0.00 | 0.00 | 0.00 | 37 | 1025.8 |
| 20260906112107 | 25 | 321 | 3.2 | 17.7 | 0.00 | 0.00 | 0.00 | 38 | 1025.8 |
| 20260906111607 | 24 | 350 | 4.8 | 22.5 | 0.00 | 0.00 | 0.00 | 38 | 1025.8 |
| 20260906111107 | 23 | 268 | 4.8 | 22.5 | 0.00 | 0.00 | 0.00 | 40 | 1026.0 |
| 20260906110107 | 24 | 30 | 1.6 | 17.7 | 0.00 | 0.00 | 0.00 | 39 | 1026.0 |
| 20260906105607 | 24 | 243 | 0.0 | 17.7 | 0.00 | 0.00 | 0.00 | 40 | 1026.0 |
| 20260906105112 | 24 | 320 | 1.6 | 20.9 | 0.00 | 0.00 | 0.00 | 40 | 1025.9 |
| 20260906104606 | 23 | 227 | 4.8 | 20.9 | 0.00 | 0.00 | 0.00 | 41 | 1026.2 |
| 20260906104107 | 22 | 248 | 3.2 | 16.1 | 0.00 | 0.00 | 0.00 | 42 | 1026.0 |
| 20260906103607 | 22 | 332 | 9.7 | 16.1 | 0.00 | 0.00 | 0.00 | 44 | 1026.4 |
| 20260906103107 | 23 | 359 | 4.8 | 16.1 | 0.00 | 0.00 | 0.00 | 43 | 1026.3 |
| 20260906102607 | 22 | 235 | 3.2 | 14.5 | 0.00 | 0.00 | 0.00 | 43 | 1026.4 |
| 20260906102107 | 21 | 11 | 6.4 | 17.7 | 0.00 | 0.00 | 0.00 | 45 | 1026.4 |
| 20260906101607 | 21 | 279 | 4.8 | 24.1 | 0.00 | 0.00 | 0.00 | 46 | 1026.6 |
| 20260906101107 | 21 | 298 | 3.2 | 24.1 | 0.00 | 0.00 | 0.00 | 45 | 1026.4 |
| 20260906100608 | 23 | 2 | 4.8 | 17.7 | 0.00 | 0.00 | 0.00 | 43 | 1026.3 |
| 20260906100107 | 23 | 6 | 4.8 | 16.1 | 0.00 | 0.00 | 0.00 | 43 | 1026.4 |
| 20260906095106 | 22 | 7 | 9.7 | 17.7 | 0.00 | 0.00 | 0.00 | 44 | 1026.5 |
| 20260906094107 | 22 | 10 | 3.2 | 16.1 | 0.00 | 0.00 | 0.00 | 46 | 1026.6 |
| 20260906093606 | 22 | 266 | 3.2 | 24.1 | 0.00 | 0.00 | 0.00 | 46 | 1026.6 |
| 20260906093108 | 22 | 341 | 6.4 | 24.1 | 0.00 | 0.00 | 0.00 | 46 | 1026.8 |
| 20260906092608 | 23 | 14 | 8.0 | 14.5 | 0.00 | 0.00 | 0.00 | 44 | 1026.7 |
| 20260906092107 | 22 | 1 | 6.4 | 16.1 | 0.00 | 0.00 | 0.00 | 45 | 1026.5 |
| 20260906091607 | 22 | 301 | 3.2 | 16.1 | 0.00 | 0.00 | 0.00 | 47 | 1026.7 |
| 20260906091107 | 22 | 252 | 3.2 | 12.9 | 0.00 | 0.00 | 0.00 | 45 | 1027.0 |
| 20260906090608 | 22 | 346 | 3.2 | 14.5 | 0.00 | 0.00 | 0.00 | 47 | 1026.7 |
| 20260906090107 | 21 | 244 | 4.8 | 14.5 | 0.00 | 0.00 | 0.00 | 48 | 1027.1 |
| 20260906085108 | 21 | 2 | 6.4 | 19.3 | 0.00 | 0.00 | 0.00 | 50 | 1026.7 |
| 20260906084607 | 22 | 56 | 3.2 | 14.5 | 0.00 | 0.00 | 0.00 | 48 | 1026.7 |
| 20260906084107 | 21 | 182 | 1.6 | 16.1 | 0.00 | 0.00 | 0.00 | 49 | 1026.7 |
| 20260906083607 | 21 | 345 | 3.2 | 16.1 | 0.00 | 0.00 | 0.00 | 49 | 1026.6 |
| 20260906083107 | 21 | 0 | 9.7 | 30.6 | 0.00 | 0.00 | 0.00 | 49 | 1026.6 |
| 20260906082108 | 21 | 358 | 9.7 | 17.7 | 0.00 | 0.00 | 0.00 | 50 | 1026.6 |
| 20260906081607 | 21 | 332 | 3.2 | 17.7 | 0.00 | 0.03 | 0.00 | 50 | 1026.4 |
| 20260906080107 | 21 | 9 | 1.6 | 11.3 | 0.00 | 0.03 | 0.00 | 50 | 1026.7 |
| 20260906075607 | 20 | 351 | 3.2 | 16.1 | 0.00 | 0.03 | 0.00 | 52 | 1026.6 |
| 20260906074606 | 20 | 358 | 3.2 | 20.9 | 0.00 | 0.03 | 0.00 | 52 | 1026.5 |
| 20260906073607 | 20 | 349 | 6.4 | 12.9 | 0.00 | 0.03 | 0.00 | 52 | 1026.3 |
| 20260906073107 | 20 | 350 | 6.4 | 12.9 | 0.00 | 0.03 | 0.00 | 52 | 1026.6 |
| 20260906072607 | 20 | 0 | 3.2 | 11.3 | 0.00 | 0.05 | 0.00 | 53 | 1026.2 |
| 20260906072107 | 20 | 349 | 3.2 | 12.9 | 0.00 | 0.05 | 0.00 | 54 | 1026.1 |
| 20260906071607 | 19 | 356 | 6.4 | 14.5 | 0.00 | 0.05 | 0.00 | 54 | 1026.4 |
| 20260906071107 | 19 | 0 | 4.8 | 14.5 | 0.00 | 0.05 | 0.00 | 55 | 1026.4 |
| 20260906070607 | 20 | 346 | 0.0 | 9.7 | 0.00 | 0.05 | 0.00 | 54 | 1026.2 |
| 20260906070107 | 19 | 111 | 0.0 | 8.0 | 0.00 | 0.05 | 0.00 | 55 | 1026.0 |
| 20260906065607 | 19 | 6 | 4.8 | 14.5 | 0.00 | 0.05 | 0.00 | 55 | 1025.9 |
| 20260906065108 | 18 | 269 | 4.8 | 14.5 | 0.00 | 0.05 | 0.00 | 57 | 1026.1 |
| 20260906064607 | 18 | 345 | 3.2 | 11.3 | 0.00 | 0.05 | 0.00 | 57 | 1026.3 |
| 20260906064107 | 18 | 14 | 3.2 | 14.5 | 0.00 | 0.05 | 0.00 | 58 | 1025.9 |
| 20260906063608 | 17 | 299 | 1.6 | 14.5 | 0.00 | 0.05 | 0.00 | 59 | 1026.0 |
| 20260906063108 | 17 | 310 | 4.8 | 12.9 | 0.00 | 0.08 | 0.00 | 59 | 1026.0 |
| 20260906062607 | 17 | 355 | 3.2 | 12.9 | 0.00 | 0.08 | 0.00 | 60 | 1025.9 |
| 20260906062108 | 17 | 1 | 9.7 | 12.9 | 0.00 | 0.08 | 0.00 | 60 | 1025.9 |
| 20260906061608 | 17 | 296 | 4.8 | 12.9 | 0.00 | 0.08 | 0.00 | 61 | 1026.0 |
| 20260906061107 | 17 | 356 | 6.4 | 14.5 | 0.00 | 0.08 | 0.00 | 61 | 1026.0 |
| 20260906060607 | 16 | 9 | 12.9 | 14.5 | 0.00 | 0.08 | 0.00 | 61 | 1025.9 |
| 20260906060107 | 16 | 333 | 6.4 | 9.7 | 0.00 | 0.08 | 0.00 | 61 | 1026.1 |
| 20260906055607 | 16 | 0 | 1.6 | 11.3 | 0.00 | 0.08 | 0.00 | 61 | 1025.7 |
| 20260906055107 | 16 | 318 | 3.2 | 11.3 | 0.00 | 0.08 | 0.00 | 62 | 1025.5 |
| 20260906054607 | 16 | 335 | 3.2 | 9.7 | 0.00 | 0.08 | 0.00 | 64 | 1025.5 |
| 20260906054108 | 16 | 350 | 3.2 | 11.3 | 0.00 | 0.08 | 0.00 | 65 | 1025.5 |
| 20260906053108 | 15 | 8 | 6.4 | 9.7 | 0.00 | 0.13 | 0.00 | 65 | 1025.5 |
| 20260906052107 | 15 | 93 | 0.0 | 11.3 | 0.00 | 0.18 | 0.00 | 66 | 1025.8 |
| 20260906051607 | 15 | 212 | 1.6 | 11.3 | 0.00 | 0.18 | 0.00 | 67 | 1025.6 |
| 20260906051107 | 15 | 42 | 3.2 | 6.4 | 0.00 | 0.18 | 0.00 | 68 | 1025.2 |
| 20260906050607 | 14 | 347 | 0.0 | 8.0 | 0.00 | 0.18 | 0.00 | 69 | 1025.4 |
| 20260906050107 | 14 | 13 | 0.0 | 8.0 | 0.00 | 0.18 | 0.00 | 69 | 1025.3 |
| 20260906045607 | 13 | 89 | 0.0 | 4.8 | 0.00 | 0.18 | 0.00 | 70 | 1025.2 |
| 20260906045107 | 13 | 259 | 0.0 | 4.8 | 0.00 | 0.18 | 0.00 | 71 | 1025.3 |
| 20260906044607 | 13 | 297 | 1.6 | 3.2 | 0.00 | 0.18 | 0.00 | 73 | 1025.2 |
| 20260906043607 | 13 | 343 | 0.0 | 6.4 | 0.00 | 0.18 | 0.00 | 72 | 1025.3 |
| 20260906043107 | 13 | 324 | 3.2 | 6.4 | 0.00 | 0.18 | 0.00 | 71 | 1025.2 |
| 20260906042607 | 13 | 0 | 3.2 | 6.4 | 0.00 | 0.18 | 0.00 | 72 | 1024.9 |
| 20260906042107 | 13 | 3 | 3.2 | 6.4 | 0.00 | 0.18 | 0.00 | 71 | 1024.9 |
| 20260906041607 | 13 | 351 | 3.2 | 6.4 | 0.00 | 0.18 | 0.00 | 71 | 1024.8 |
| 20260906041108 | 13 | 332 | 3.2 | 8.0 | 0.00 | 0.18 | 0.00 | 71 | 1024.8 |
| 20260906040107 | 13 | 10 | 3.2 | 6.4 | 0.00 | 0.18 | 0.00 | 71 | 1024.8 |
| 20260906035607 | 13 | 4 | 3.2 | 4.8 | 0.00 | 0.18 | 0.00 | 71 | 1024.8 |
| 20260906035107 | 13 | 24 | 1.6 | 6.4 | 0.00 | 0.18 | 0.00 | 71 | 1024.7 |
| 20260906034607 | 13 | 33 | 3.2 | 6.4 | 0.00 | 0.18 | 0.00 | 71 | 1024.8 |
| 20260906034107 | 13 | 33 | 3.2 | 4.8 | 0.00 | 0.18 | 0.00 | 71 | 1024.8 |
| 20260906033607 | 13 | 59 | 3.2 | 4.8 | 0.00 | 0.18 | 0.00 | 70 | 1024.9 |
| 20260906033106 | 13 | 357 | 3.2 | 4.8 | 0.00 | 0.18 | 0.00 | 70 | 1024.7 |
| 20260906032607 | 13 | 7 | 3.2 | 4.8 | 0.00 | 0.18 | 0.00 | 69 | 1024.6 |
| 20260906032107 | 13 | 346 | 0.0 | 4.8 | 0.00 | 0.18 | 0.00 | 69 | 1024.7 |
| 20260906031607 | 14 | 25 | 0.0 | 6.4 | 0.00 | 0.18 | 0.00 | 69 | 1024.5 |
| 20260906031108 | 14 | 16 | 3.2 | 6.4 | 0.00 | 0.18 | 0.00 | 68 | 1024.9 |
| 20260906030607 | 14 | 37 | 1.6 | 6.4 | 0.00 | 0.18 | 0.00 | 68 | 1024.8 |
| 20260906030107 | 14 | 27 | 0.0 | 6.4 | 0.00 | 0.18 | 0.00 | 68 | 1024.8 |
| 20260906025607 | 14 | 329 | 4.8 | 6.4 | 0.00 | 0.18 | 0.00 | 67 | 1024.5 |
| 20260906025107 | 15 | 4 | 0.0 | 6.4 | 0.00 | 0.18 | 0.00 | 67 | 1024.5 |
| 20260906024607 | 15 | 49 | 1.6 | 6.4 | 0.00 | 0.18 | 0.00 | 67 | 1024.6 |
| 20260906024107 | 15 | 22 | 3.2 | 6.4 | 0.00 | 0.18 | 0.00 | 67 | 1024.5 |
| 20260906023607 | 15 | 25 | 0.0 | 6.4 | 0.00 | 0.18 | 0.00 | 67 | 1024.1 |
| 20260906023106 | 15 | 279 | 0.0 | 6.4 | 0.00 | 0.18 | 0.00 | 67 | 1024.3 |
| 20260906022607 | 15 | 274 | 4.8 | 6.4 | 0.00 | 0.18 | 0.00 | 66 | 1024.3 |
| 20260906021607 | 15 | 20 | 3.2 | 6.4 | 0.00 | 0.18 | 0.00 | 67 | 1024.2 |
| 20260906021107 | 15 | 337 | 0.0 | 6.4 | 0.00 | 0.18 | 0.00 | 67 | 1024.4 |
| 20260906020607 | 15 | 324 | 0.0 | 6.4 | 0.00 | 0.18 | 0.00 | 67 | 1024.4 |
| 20260906020107 | 15 | 13 | 0.0 | 4.8 | 0.00 | 0.18 | 0.00 | 66 | 1024.3 |
| 20260906015610 | 15 | 341 | 0.0 | 6.4 | 0.00 | 0.18 | 0.00 | 66 | 1024.1 |
| 20260906015110 | 15 | 16 | 0.0 | 6.4 | 0.00 | 0.18 | 0.00 | 66 | 1024.2 |
| 20260906014610 | 15 | 340 | 0.0 | 6.4 | 0.00 | 0.18 | 0.00 | 66 | 1024.1 |
| 20260906014111 | 15 | 357 | 1.6 | 6.4 | 0.00 | 0.18 | 0.00 | 66 | 1024.3 |
| 20260906013609 | 15 | 316 | 0.0 | 6.4 | 0.00 | 0.18 | 0.00 | 66 | 1024.1 |
| 20260906013110 | 15 | 349 | 1.6 | 6.4 | 0.00 | 0.18 | 0.00 | 66 | 1024.0 |
| 20260906012610 | 15 | 20 | 3.2 | 6.4 | 0.00 | 0.18 | 0.00 | 66 | 1023.9 |
| 20260906012110 | 15 | 339 | 3.2 | 6.4 | 0.00 | 0.18 | 0.00 | 66 | 1023.8 |
| 20260906011610 | 15 | 273 | 3.2 | 8.0 | 0.00 | 0.18 | 0.00 | 67 | 1023.9 |
| 20260906011110 | 15 | 254 | 0.0 | 8.0 | 0.00 | 0.18 | 0.00 | 67 | 1024.0 |
| 20260906010111 | 15 | 302 | 0.0 | 4.8 | 0.00 | 0.18 | 0.00 | 67 | 1023.8 |
| 20260906005610 | 15 | 358 | 1.6 | 4.8 | 0.00 | 0.18 | 0.00 | 66 | 1024.0 |
| 20260906005110 | 15 | 348 | 3.2 | 4.8 | 0.00 | 0.18 | 0.00 | 66 | 1023.8 |
| 20260906004609 | 15 | 28 | 4.8 | 4.8 | 0.00 | 0.18 | 0.00 | 66 | 1023.8 |
| 20260906004122 | 15 | 341 | 1.6 | 4.8 | 0.00 | 0.18 | 0.00 | 66 | 1023.7 |
| 20260906003610 | 15 | 31 | 1.6 | 4.8 | 0.00 | 0.18 | 0.00 | 65 | 1023.7 |
| 20260906003110 | 15 | 32 | 3.2 | 4.8 | 0.00 | 0.18 | 0.00 | 66 | 1023.8 |
| 20260906002610 | 15 | 58 | 1.6 | 6.4 | 0.00 | 0.18 | 0.00 | 66 | 1023.7 |
| 20260906002111 | 15 | 300 | 3.2 | 6.4 | 0.00 | 0.18 | 0.00 | 66 | 1023.8 |
| 20260906001622 | 15 | 260 | 0.0 | 4.8 | 0.00 | 0.18 | 0.00 | 66 | 1023.6 |
| 20260906001109 | 15 | 14 | 0.0 | 6.4 | 0.00 | 0.18 | 0.00 | 67 | 1023.5 |
| 20260906000609 | 15 | 349 | 3.2 | 6.4 | 0.00 | 0.18 | 0.00 | 67 | 1023.3 |
| 20260905235610 | 15 | 336 | 0.0 | 3.2 | 0.00 | 0.18 | 0.00 | 67 | 1023.3 |
| 20260905235110 | 15 | 28 | 0.0 | 3.2 | 0.00 | 0.18 | 0.00 | 68 | 1023.3 |
| 20260905234610 | 15 | 5 | 0.0 | 3.2 | 0.00 | 0.18 | 0.00 | 67 | 1023.4 |
| 20260905234109 | 16 | 311 | 0.0 | 4.8 | 0.00 | 0.18 | 0.00 | 66 | 1023.2 |
| 20260905233611 | 16 | 15 | 0.0 | 4.8 | 0.00 | 0.18 | 0.00 | 66 | 1023.1 |
| 20260905233111 | 16 | 32 | 0.0 | 3.2 | 0.00 | 0.18 | 0.00 | 66 | 1023.5 |
| 20260905232610 | 16 | 265 | 1.6 | 4.8 | 0.00 | 0.18 | 0.00 | 65 | 1023.4 |
| 20260905232110 | 16 | 15 | 3.2 | 4.8 | 0.00 | 0.18 | 0.00 | 64 | 1023.2 |